Location: Hengforden
(52.3167°N, 6.1333°E)
Time: 16:14:05
(UTC+00:00)

ATLAS CENTAUR R/B - Pass Details

Date: 14 June 2025
Orbit: 372 x 496 km, 64.6° (Epoch: 19 July)

Event Time Altitude Azimuth Distance (km) Brightness Sun altitude
Rises 21:16:58 0° 311° (NW) 2,620 6.5 -8.5°
Reaches altitude 10° 21:19:19 10° 300° (WNW) 1,727 5.0 -8.7°
Maximum altitude 21:22:44 30° 239° (WSW) 922 2.5 -9.0°
Drops below altitude 10° 21:26:03 10° 177° (S) 1,684 3.3 -9.2°
Enters shadow 21:26:04 10° 177° (S) 1,684 3.3 -9.2°
